Time,TemperatureF,DewpointF,PressureIn,WindDirection,WindDirectionDegrees,WindSpeedMPH,WindSpeedGustMPH,Humidity,HourlyPrecipIn,Conditions,Clouds,dailyrainin,SoftwareType,DateUTC
2013-01-26 00:00:00,34.3,32.5,26.55,North,0,0.0,0.0,93,0.00,,,0.00,VWS V14.01,2013-01-26 08:00:00,
2013-01-26 00:05:00,34.5,32.7,26.55,North,0,0.0,0.0,93,0.00,,,0.00,VWS V14.01,2013-01-26 08:05:00,
2013-01-26 00:10:00,34.5,33.0,26.55,North,0,0.0,0.0,94,0.00,,,0.00,VWS V14.01,2013-01-26 08:10:00,
2013-01-26 00:15:00,34.5,33.0,26.55,North,0,0.0,0.0,94,0.00,,,0.00,VWS V14.01,2013-01-26 08:15:00,
2013-01-26 00:20:00,34.5,33.0,26.55,North,0,0.0,0.0,94,0.00,,,0.00,VWS V14.01,2013-01-26 08:20:00,
2013-01-26 00:25:00,34.3,32.8,26.55,North,0,0.0,0.0,94,0.00,,,0.00,VWS V14.01,2013-01-26 08:25:00,
2013-01-26 00:30:00,34.5,33.0,26.55,North,0,0.0,0.0,94,0.00,,,0.00,VWS V14.01,2013-01-26 08:30:00,
2013-01-26 00:35:00,34.7,33.2,26.55,North,0,0.0,0.0,94,0.00,,,0.00,VWS V14.01,2013-01-26 08:35:00,
2013-01-26 00:40:00,35.1,33.8,26.55,North,0,0.0,0.0,95,0.00,,,0.00,VWS V14.01,2013-01-26 08:40:00,
2013-01-26 00:45:00,35.6,34.3,26.55,North,0,0.0,0.0,95,0.00,,,0.00,VWS V14.01,2013-01-26 08:45:00,
2013-01-26 00:50:00,35.6,34.3,26.55,North,0,0.0,0.0,95,0.00,,,0.00,VWS V14.01,2013-01-26 08:50:00,
2013-01-26 00:55:00,35.2,34.0,26.52,North,0,0.0,0.0,95,0.00,,,0.00,VWS V14.01,2013-01-26 08:55:00,
2013-01-26 01:00:00,34.9,33.3,26.52,North,0,0.0,0.0,94,0.00,,,0.00,VWS V14.01,2013-01-26 09:00:00,
2013-01-26 01:05:00,34.5,33.0,26.52,North,0,0.0,0.0,94,0.00,,,0.00,VWS V14.01,2013-01-26 09:05:00,
2013-01-26 01:10:00,34.5,33.0,26.55,North,0,0.0,0.0,94,0.00,,,0.00,VWS V14.01,2013-01-26 09:10:00,
2013-01-26 01:15:00,34.7,33.4,26.55,North,0,0.0,0.0,95,0.00,,,0.00,VWS V14.01,2013-01-26 09:15:00,
2013-01-26 01:20:00,34.7,33.7,26.52,North,0,0.0,0.0,96,0.00,,,0.00,VWS V14.01,2013-01-26 09:20:00,
2013-01-26 01:25:00,34.9,33.9,26.52,North,0,0.0,0.0,96,0.00,,,0.00,VWS V14.01,2013-01-26 09:25:00,
2013-01-26 01:30:00,35.1,34.0,26.52,North,0,0.0,0.0,96,0.00,,,0.00,VWS V14.01,2013-01-26 09:30:00,
2013-01-26 01:35:00,35.1,34.0,26.52,North,0,0.0,0.0,96,0.04,,,0.04,VWS V14.01,2013-01-26 09:35:00,
2013-01-26 01:40:00,34.9,33.9,26.52,North,0,0.0,0.0,96,0.04,,,0.04,VWS V14.01,2013-01-26 09:40:00,
2013-01-26 01:45:00,34.3,33.1,26.52,North,0,0.0,0.0,95,0.04,,,0.04,VWS V14.01,2013-01-26 09:45:00,
2013-01-26 01:50:00,34.3,33.1,26.52,North,0,0.0,0.0,95,0.04,,,0.04,VWS V14.01,2013-01-26 09:50:00,
2013-01-26 01:55:00,34.3,33.1,26.52,North,0,0.0,0.0,95,0.04,,,0.04,VWS V14.01,2013-01-26 09:55:00,
2013-01-26 02:00:00,34.0,32.7,26.52,North,0,0.0,0.0,95,0.04,,,0.04,VWS V14.01,2013-01-26 10:00:00,
2013-01-26 02:05:00,34.0,32.7,26.52,North,0,0.0,0.0,95,0.04,,,0.04,VWS V14.01,2013-01-26 10:05:00,
2013-01-26 02:10:00,34.0,32.7,26.52,North,0,0.0,0.0,95,0.04,,,0.04,VWS V14.01,2013-01-26 10:10:00,
2013-01-26 02:15:00,33.8,32.5,26.52,North,0,0.0,0.0,95,0.04,,,0.04,VWS V14.01,2013-01-26 10:15:00,
2013-01-26 02:20:00,34.0,32.7,26.52,North,0,0.0,0.0,95,0.04,,,0.04,VWS V14.01,2013-01-26 10:20:00,
2013-01-26 02:25:00,33.8,32.5,26.52,North,0,0.0,0.0,95,0.04,,,0.04,VWS V14.01,2013-01-26 10:25:00,
2013-01-26 02:30:00,33.8,32.5,26.52,North,0,0.0,0.0,95,0.04,,,0.04,VWS V14.01,2013-01-26 10:30:00,
2013-01-26 02:35:00,34.0,32.7,26.52,North,0,0.0,0.0,95,0.00,,,0.04,VWS V14.01,2013-01-26 10:35:00,
2013-01-26 02:40:00,34.0,32.7,26.52,North,0,0.0,0.0,95,0.00,,,0.04,VWS V14.01,2013-01-26 10:40:00,
2013-01-26 02:45:00,34.0,32.7,26.52,North,0,0.0,0.0,95,0.00,,,0.04,VWS V14.01,2013-01-26 10:45:00,
2013-01-26 02:50:00,34.0,32.7,26.52,North,0,0.0,0.0,95,0.00,,,0.04,VWS V14.01,2013-01-26 10:50:00,
2013-01-26 02:55:00,34.0,32.7,26.52,North,0,0.0,0.0,95,0.00,,,0.04,VWS V14.01,2013-01-26 10:55:00,
2013-01-26 03:00:00,34.2,32.9,26.52,North,0,0.0,0.0,95,0.00,,,0.04,VWS V14.01,2013-01-26 11:00:00,
2013-01-26 03:05:00,34.2,32.9,26.52,North,0,0.0,0.0,95,0.00,,,0.04,VWS V14.01,2013-01-26 11:05:00,
2013-01-26 03:10:00,34.2,32.9,26.52,North,0,0.0,0.0,95,0.00,,,0.04,VWS V14.01,2013-01-26 11:10:00,
2013-01-26 03:15:00,34.2,32.9,26.52,North,0,0.0,0.0,95,0.00,,,0.04,VWS V14.01,2013-01-26 11:15:00,
2013-01-26 03:20:00,34.3,33.1,26.52,North,0,0.0,0.0,95,0.00,,,0.04,VWS V14.01,2013-01-26 11:20:00,
2013-01-26 03:25:00,34.3,33.1,26.52,North,0,0.0,0.0,95,0.00,,,0.04,VWS V14.01,2013-01-26 11:25:00,
2013-01-26 03:30:00,34.5,33.5,26.52,North,0,0.0,0.0,96,0.00,,,0.04,VWS V14.01,2013-01-26 11:30:00,
2013-01-26 03:35:00,34.7,33.7,26.49,North,0,0.0,0.0,96,0.00,,,0.04,VWS V14.01,2013-01-26 11:35:00,
2013-01-26 03:40:00,34.7,33.7,26.49,North,0,0.0,0.0,96,0.00,,,0.04,VWS V14.01,2013-01-26 11:40:00,
2013-01-26 03:45:00,34.5,33.5,26.49,North,0,0.0,0.0,96,0.00,,,0.04,VWS V14.01,2013-01-26 11:45:00,
2013-01-26 03:50:00,34.3,33.1,26.49,North,0,0.0,0.0,95,0.00,,,0.04,VWS V14.01,2013-01-26 11:50:00,
2013-01-26 03:55:00,34.2,32.9,26.49,North,0,0.0,0.0,95,0.00,,,0.04,VWS V14.01,2013-01-26 11:55:00,
2013-01-26 04:00:00,34.2,33.1,26.49,North,0,0.0,0.0,96,0.00,,,0.04,VWS V14.01,2013-01-26 12:00:00,
2013-01-26 04:05:00,34.0,33.0,26.49,North,0,0.0,0.0,96,0.00,,,0.04,VWS V14.01,2013-01-26 12:05:00,
2013-01-26 04:10:00,33.8,32.8,26.49,North,0,0.0,0.0,96,0.00,,,0.04,VWS V14.01,2013-01-26 12:10:00,
2013-01-26 04:15:00,33.8,32.8,26.49,North,0,0.0,0.0,96,0.00,,,0.04,VWS V14.01,2013-01-26 12:15:00,
2013-01-26 04:20:00,33.8,32.8,26.49,North,0,0.0,0.0,96,0.00,,,0.04,VWS V14.01,2013-01-26 12:20:00,
2013-01-26 04:25:00,33.6,32.9,26.49,North,0,0.0,0.0,97,0.00,,,0.04,VWS V14.01,2013-01-26 12:25:00,
2013-01-26 04:30:00,33.6,32.6,26.49,North,0,0.0,0.0,96,0.00,,,0.04,VWS V14.01,2013-01-26 12:30:00,
2013-01-26 04:35:00,33.8,32.8,26.49,North,0,0.0,0.0,96,0.00,,,0.04,VWS V14.01,2013-01-26 12:35:00,
2013-01-26 04:40:00,34.0,33.2,26.49,North,0,0.0,0.0,97,0.00,,,0.04,VWS V14.01,2013-01-26 12:40:00,
2013-01-26 04:45:00,34.0,33.5,26.49,North,0,0.0,0.0,98,0.00,,,0.04,VWS V14.01,2013-01-26 12:45:00,
2013-01-26 04:50:00,34.0,33.5,26.49,North,0,0.0,0.0,98,0.00,,,0.04,VWS V14.01,2013-01-26 12:50:00,
2013-01-26 04:55:00,34.0,33.5,26.49,North,0,0.0,0.0,98,0.00,,,0.04,VWS V14.01,2013-01-26 12:55:00,
2013-01-26 05:00:00,33.8,33.3,26.49,North,0,0.0,0.0,98,0.00,,,0.04,VWS V14.01,2013-01-26 13:00:00,
2013-01-26 05:05:00,33.8,33.3,26.49,North,0,0.0,0.0,98,0.00,,,0.04,VWS V14.01,2013-01-26 13:05:00,
2013-01-26 05:10:00,33.8,33.3,26.49,North,0,0.0,0.0,98,0.04,,,0.08,VWS V14.01,2013-01-26 13:10:00,
2013-01-26 05:15:00,33.8,33.3,26.49,North,0,0.0,0.0,98,0.04,,,0.08,VWS V14.01,2013-01-26 13:15:00,
2013-01-26 05:20:00,33.8,33.0,26.49,North,0,0.0,0.0,97,0.04,,,0.08,VWS V14.01,2013-01-26 13:20:00,
2013-01-26 05:25:00,33.8,33.0,26.49,North,0,0.0,0.0,97,0.04,,,0.08,VWS V14.01,2013-01-26 13:25:00,
2013-01-26 05:30:00,33.8,33.0,26.49,North,0,0.0,0.0,97,0.04,,,0.08,VWS V14.01,2013-01-26 13:30:00,
2013-01-26 05:35:00,33.8,33.0,26.49,North,0,0.0,0.0,97,0.08,,,0.12,VWS V14.01,2013-01-26 13:35:00,
2013-01-26 05:40:00,33.6,33.1,26.49,North,0,0.0,0.0,98,0.08,,,0.12,VWS V14.01,2013-01-26 13:40:00,
2013-01-26 05:45:00,33.6,33.1,26.49,North,0,0.0,0.0,98,0.08,,,0.12,VWS V14.01,2013-01-26 13:45:00,
2013-01-26 05:50:00,33.8,33.3,26.49,North,0,0.0,0.0,98,0.08,,,0.12,VWS V14.01,2013-01-26 13:50:00,
2013-01-26 05:55:00,33.8,33.3,26.49,North,0,0.0,0.0,98,0.08,,,0.12,VWS V14.01,2013-01-26 13:55:00,
2013-01-26 06:00:00,33.8,33.3,26.49,North,0,0.0,0.0,98,0.12,,,0.16,VWS V14.01,2013-01-26 14:00:00,
2013-01-26 06:05:00,33.8,33.3,26.49,North,0,0.0,0.0,98,0.12,,,0.16,VWS V14.01,2013-01-26 14:05:00,
2013-01-26 06:10:00,33.8,33.3,26.49,North,0,0.0,0.0,98,0.08,,,0.16,VWS V14.01,2013-01-26 14:10:00,
2013-01-26 06:15:00,34.0,33.5,26.49,North,0,0.0,0.0,98,0.08,,,0.16,VWS V14.01,2013-01-26 14:15:00,
2013-01-26 06:20:00,34.0,33.5,26.49,North,0,0.0,0.0,98,0.08,,,0.16,VWS V14.01,2013-01-26 14:20:00,
2013-01-26 06:25:00,34.3,33.8,26.49,North,0,0.0,0.0,98,0.08,,,0.16,VWS V14.01,2013-01-26 14:25:00,
2013-01-26 06:30:00,34.5,34.0,26.49,North,0,0.0,0.0,98,0.08,,,0.16,VWS V14.01,2013-01-26 14:30:00,
2013-01-26 06:35:00,34.5,34.0,26.49,North,0,0.0,0.0,98,0.04,,,0.16,VWS V14.01,2013-01-26 14:35:00,
2013-01-26 06:40:00,34.5,34.0,26.49,North,0,0.0,0.0,98,0.04,,,0.16,VWS V14.01,2013-01-26 14:40:00,
2013-01-26 06:45:00,34.9,34.4,26.49,North,0,0.0,0.0,98,0.04,,,0.16,VWS V14.01,2013-01-26 14:45:00,
2013-01-26 06:50:00,35.1,34.5,26.49,North,0,0.0,0.0,98,0.04,,,0.16,VWS V14.01,2013-01-26 14:50:00,
2013-01-26 06:55:00,34.9,34.4,26.49,North,0,0.0,0.0,98,0.04,,,0.16,VWS V14.01,2013-01-26 14:55:00,
2013-01-26 07:00:00,34.9,34.4,26.49,North,0,0.0,0.0,98,0.04,,,0.16,VWS V14.01,2013-01-26 15:00:00,
2013-01-26 07:05:00,35.1,34.5,26.49,North,0,0.0,0.0,98,0.00,,,0.16,VWS V14.01,2013-01-26 15:05:00,
2013-01-26 07:10:00,35.1,34.5,26.49,North,0,0.0,0.0,98,0.00,,,0.16,VWS V14.01,2013-01-26 15:10:00,
2013-01-26 07:15:00,35.1,34.5,26.49,North,0,0.0,0.0,98,0.00,,,0.16,VWS V14.01,2013-01-26 15:15:00,
2013-01-26 07:20:00,35.2,34.7,26.49,North,0,0.0,0.0,98,0.00,,,0.16,VWS V14.01,2013-01-26 15:20:00,
2013-01-26 07:25:00,35.4,34.9,26.49,North,0,0.0,0.0,98,0.00,,,0.16,VWS V14.01,2013-01-26 15:25:00,
2013-01-26 07:30:00,35.4,34.9,26.49,North,0,0.0,0.0,98,0.00,,,0.16,VWS V14.01,2013-01-26 15:30:00,
2013-01-26 07:35:00,35.4,34.9,26.49,North,0,0.0,0.0,98,0.00,,,0.16,VWS V14.01,2013-01-26 15:35:00,
2013-01-26 07:40:00,35.1,34.5,26.49,North,0,0.0,0.0,98,0.00,,,0.16,VWS V14.01,2013-01-26 15:40:00,
2013-01-26 07:45:00,34.9,34.4,26.49,North,0,0.0,0.0,98,0.00,,,0.16,VWS V14.01,2013-01-26 15:45:00,
2013-01-26 07:50:00,34.9,34.4,26.49,North,0,0.0,0.0,98,0.00,,,0.16,VWS V14.01,2013-01-26 15:50:00,
2013-01-26 07:55:00,35.1,34.5,26.49,North,0,0.0,0.0,98,0.00,,,0.16,VWS V14.01,2013-01-26 15:55:00,
2013-01-26 08:00:00,35.1,34.5,26.49,North,0,0.0,0.0,98,0.00,,,0.16,VWS V14.01,2013-01-26 16:00:00,
2013-01-26 08:05:00,35.1,34.5,26.49,North,0,0.0,0.0,98,0.00,,,0.16,VWS V14.01,2013-01-26 16:05:00,
2013-01-26 08:10:00,35.4,34.9,26.49,North,0,0.0,0.0,98,0.00,,,0.16,VWS V14.01,2013-01-26 16:10:00,
2013-01-26 08:15:00,35.6,34.6,26.49,North,0,0.0,0.0,96,0.00,,,0.16,VWS V14.01,2013-01-26 16:15:00,
2013-01-26 08:20:00,35.8,34.8,26.49,North,0,0.0,0.0,96,0.00,,,0.16,VWS V14.01,2013-01-26 16:20:00,
2013-01-26 08:25:00,35.8,34.2,26.49,North,0,0.0,0.0,94,0.00,,,0.16,VWS V14.01,2013-01-26 16:25:00,
2013-01-26 08:30:00,35.8,34.2,26.49,North,0,0.0,0.0,94,0.00,,,0.16,VWS V14.01,2013-01-26 16:30:00,
2013-01-26 08:35:00,35.6,34.0,26.49,North,0,0.0,0.0,94,0.00,,,0.16,VWS V14.01,2013-01-26 16:35:00,
2013-01-26 08:40:00,36.0,34.1,26.49,North,0,0.0,0.0,93,0.00,,,0.16,VWS V14.01,2013-01-26 16:40:00,
2013-01-26 08:45:00,36.3,34.5,26.49,North,0,0.0,0.0,93,0.00,,,0.16,VWS V14.01,2013-01-26 16:45:00,
2013-01-26 08:50:00,36.3,34.5,26.49,North,0,0.0,0.0,93,0.00,,,0.16,VWS V14.01,2013-01-26 16:50:00,
2013-01-26 08:55:00,36.3,34.2,26.49,North,0,0.0,0.0,92,0.00,,,0.16,VWS V14.01,2013-01-26 16:55:00,
2013-01-26 09:00:00,36.3,33.7,26.49,North,0,0.0,0.0,90,0.00,,,0.16,VWS V14.01,2013-01-26 17:00:00,
2013-01-26 09:05:00,36.3,33.4,26.49,North,0,0.0,0.0,89,0.00,,,0.16,VWS V14.01,2013-01-26 17:05:00,
2013-01-26 09:10:00,36.1,33.2,26.49,North,0,0.0,0.0,89,0.00,,,0.16,VWS V14.01,2013-01-26 17:10:00,
2013-01-26 09:15:00,36.3,33.4,26.49,North,0,0.0,0.0,89,0.00,,,0.16,VWS V14.01,2013-01-26 17:15:00,
2013-01-26 09:20:00,36.7,33.8,26.46,North,0,0.0,0.0,89,0.00,,,0.16,VWS V14.01,2013-01-26 17:20:00,
2013-01-26 09:25:00,37.0,34.4,26.46,North,0,0.0,0.0,90,0.00,,,0.16,VWS V14.01,2013-01-26 17:25:00,
2013-01-26 09:30:00,37.2,33.7,26.46,North,0,0.0,0.0,87,0.00,,,0.16,VWS V14.01,2013-01-26 17:30:00,
2013-01-26 09:35:00,37.4,33.0,26.49,North,0,0.0,0.0,84,0.00,,,0.16,VWS V14.01,2013-01-26 17:35:00,
2013-01-26 09:40:00,37.6,33.2,26.49,North,0,0.0,0.0,84,0.00,,,0.16,VWS V14.01,2013-01-26 17:40:00,
2013-01-26 09:45:00,37.9,33.8,26.49,North,0,0.0,0.0,85,0.00,,,0.16,VWS V14.01,2013-01-26 17:45:00,
2013-01-26 09:50:00,37.0,33.2,26.46,North,0,0.0,0.0,86,0.00,,,0.16,VWS V14.01,2013-01-26 17:50:00,
2013-01-26 09:55:00,36.5,32.7,26.46,North,0,0.0,0.0,86,0.00,,,0.16,VWS V14.01,2013-01-26 17:55:00,
2013-01-26 10:00:00,36.0,32.2,26.46,North,0,0.0,0.0,86,0.00,,,0.16,VWS V14.01,2013-01-26 18:00:00,
2013-01-26 10:05:00,35.6,32.4,26.46,North,0,0.0,0.0,88,0.00,,,0.16,VWS V14.01,2013-01-26 18:05:00,
2013-01-26 10:10:00,35.4,32.8,26.46,North,0,0.0,0.0,90,0.00,,,0.16,VWS V14.01,2013-01-26 18:10:00,
2013-01-26 10:15:00,35.6,33.2,26.49,North,0,0.0,0.0,91,0.00,,,0.16,VWS V14.01,2013-01-26 18:15:00,
2013-01-26 10:20:00,35.6,33.5,26.49,North,0,0.0,0.0,92,0.00,,,0.16,VWS V14.01,2013-01-26 18:20:00,
2013-01-26 10:25:00,35.8,34.0,26.49,North,0,0.0,0.0,93,0.00,,,0.16,VWS V14.01,2013-01-26 18:25:00,
2013-01-26 10:30:00,36.3,34.5,26.49,North,0,0.0,0.0,93,0.00,,,0.16,VWS V14.01,2013-01-26 18:30:00,
2013-01-26 10:35:00,36.7,34.8,26.49,North,0,0.0,0.0,93,0.00,,,0.16,VWS V14.01,2013-01-26 18:35:00,
2013-01-26 10:40:00,37.0,35.2,26.49,North,0,0.0,0.0,93,0.00,,,0.16,VWS V14.01,2013-01-26 18:40:00,
2013-01-26 10:45:00,37.4,35.3,26.49,North,0,0.0,0.0,92,0.00,,,0.16,VWS V14.01,2013-01-26 18:45:00,
2013-01-26 10:51:00,37.4,35.0,26.46,North,0,0.0,0.0,91,0.00,,,0.16,VWS V14.01,2013-01-26 18:51:00,
2013-01-26 10:56:00,37.4,34.2,26.46,North,0,0.0,0.0,88,0.00,,,0.16,VWS V14.01,2013-01-26 18:56:00,
2013-01-26 11:01:00,37.6,34.6,26.46,North,0,0.0,0.0,89,0.00,,,0.16,VWS V14.01,2013-01-26 19:01:00,
2013-01-26 11:06:00,37.9,35.0,26.49,North,0,0.0,0.0,89,0.00,,,0.16,VWS V14.01,2013-01-26 19:06:00,
2013-01-26 11:11:00,38.3,35.3,26.49,North,0,0.0,0.0,89,0.00,,,0.16,VWS V14.01,2013-01-26 19:11:00,
2013-01-26 11:16:00,37.4,33.0,26.49,North,0,0.0,0.0,84,0.00,,,0.16,VWS V14.01,2013-01-26 19:16:00,
2013-01-26 11:21:00,37.9,34.1,26.49,North,0,0.0,0.0,86,0.00,,,0.16,VWS V14.01,2013-01-26 19:21:00,
2013-01-26 11:26:00,38.5,35.0,26.49,North,0,0.0,0.0,87,0.00,,,0.16,VWS V14.01,2013-01-26 19:26:00,
2013-01-26 11:31:00,38.8,35.3,26.49,North,0,0.0,0.0,87,0.00,,,0.16,VWS V14.01,2013-01-26 19:31:00,
2013-01-26 11:36:00,39.9,36.4,26.46,North,0,0.0,0.0,87,0.00,,,0.16,VWS V14.01,2013-01-26 19:36:00,
2013-01-26 11:41:00,38.8,34.4,26.46,North,0,0.0,0.0,84,0.00,,,0.16,VWS V14.01,2013-01-26 19:41:00,
2013-01-26 11:46:00,38.5,33.8,26.49,North,0,0.0,0.0,83,0.00,,,0.16,VWS V14.01,2013-01-26 19:46:00,
2013-01-26 11:51:00,37.4,31.8,26.49,North,0,0.0,0.0,80,0.00,,,0.16,VWS V14.01,2013-01-26 19:51:00,
2013-01-26 11:56:00,37.2,32.5,26.49,North,0,0.0,0.0,83,0.00,,,0.16,VWS V14.01,2013-01-26 19:56:00,
2013-01-26 12:01:00,37.9,32.0,26.49,North,0,0.0,0.0,79,0.00,,,0.16,VWS V14.01,2013-01-26 20:01:00,
2013-01-26 12:06:00,39.0,33.7,26.46,North,0,0.0,0.0,81,0.00,,,0.16,VWS V14.01,2013-01-26 20:06:00,
2013-01-26 12:11:00,38.7,32.7,26.46,North,0,0.0,0.0,79,0.00,,,0.16,VWS V14.01,2013-01-26 20:11:00,
2013-01-26 12:16:00,38.8,33.5,26.46,North,0,0.0,0.0,81,0.00,,,0.16,VWS V14.01,2013-01-26 20:16:00,
2013-01-26 12:21:00,39.2,33.9,26.46,North,0,0.0,0.0,81,0.00,,,0.16,VWS V14.01,2013-01-26 20:21:00,
2013-01-26 12:26:00,40.5,35.7,26.46,North,0,0.0,0.0,83,0.00,,,0.16,VWS V14.01,2013-01-26 20:26:00,
2013-01-26 12:31:00,41.0,35.9,26.46,North,0,0.0,0.0,82,0.00,,,0.16,VWS V14.01,2013-01-26 20:31:00,
2013-01-26 12:36:00,41.2,35.8,26.46,North,0,0.0,0.0,81,0.00,,,0.16,VWS V14.01,2013-01-26 20:36:00,
2013-01-26 12:41:00,40.6,34.0,26.46,North,0,0.0,0.0,77,0.00,,,0.16,VWS V14.01,2013-01-26 20:41:00,
2013-01-26 12:46:00,39.9,31.3,26.46,North,0,0.0,0.0,71,0.00,,,0.16,VWS V14.01,2013-01-26 20:46:00,
2013-01-26 12:51:00,39.4,30.8,26.46,North,0,0.0,0.0,71,0.00,,,0.16,VWS V14.01,2013-01-26 20:51:00,
2013-01-26 12:56:00,39.2,31.3,26.46,North,0,0.0,0.0,73,0.00,,,0.16,VWS V14.01,2013-01-26 20:56:00,
2013-01-26 13:01:00,39.0,31.5,26.46,North,0,0.0,0.0,74,0.00,,,0.16,VWS V14.01,2013-01-26 21:01:00,
2013-01-26 13:06:00,38.7,30.8,26.46,North,0,0.0,0.0,73,0.00,,,0.16,VWS V14.01,2013-01-26 21:06:00,
2013-01-26 13:11:00,38.5,30.9,26.46,North,0,0.0,0.0,74,0.00,,,0.16,VWS V14.01,2013-01-26 21:11:00,
2013-01-26 13:16:00,38.1,30.9,26.46,North,0,0.0,0.0,75,0.00,,,0.16,VWS V14.01,2013-01-26 21:16:00,
2013-01-26 13:21:00,37.9,30.7,26.46,North,0,0.0,0.0,75,0.00,,,0.16,VWS V14.01,2013-01-26 21:21:00,
2013-01-26 13:26:00,38.1,29.2,26.46,North,0,0.0,0.0,70,0.00,,,0.16,VWS V14.01,2013-01-26 21:26:00,
2013-01-26 13:31:00,38.5,29.6,26.46,North,0,0.0,0.0,70,0.00,,,0.16,VWS V14.01,2013-01-26 21:31:00,
2013-01-26 13:36:00,38.5,29.9,26.46,North,0,0.0,0.0,71,0.00,,,0.16,VWS V14.01,2013-01-26 21:36:00,
2013-01-26 13:41:00,38.5,30.2,26.46,North,0,0.0,0.0,72,0.00,,,0.16,VWS V14.01,2013-01-26 21:41:00,
2013-01-26 13:46:00,38.3,30.1,26.46,North,0,0.0,0.0,72,0.00,,,0.16,VWS V14.01,2013-01-26 21:46:00,
2013-01-26 13:51:00,38.1,29.2,26.46,North,0,0.0,0.0,70,0.00,,,0.16,VWS V14.01,2013-01-26 21:51:00,
2013-01-26 13:56:00,38.7,23.0,26.46,North,0,0.0,0.0,53,0.00,,,0.16,VWS V14.01,2013-01-26 21:56:00,
2013-01-26 14:01:00,38.7,23.9,26.46,North,0,0.0,0.0,55,0.00,,,0.16,VWS V14.01,2013-01-26 22:01:00,
2013-01-26 14:06:00,38.3,23.1,26.46,North,0,0.0,0.0,54,0.00,,,0.16,VWS V14.01,2013-01-26 22:06:00,
2013-01-26 14:11:00,38.3,22.7,26.46,North,0,0.0,0.0,53,0.00,,,0.16,VWS V14.01,2013-01-26 22:11:00,
2013-01-26 14:16:00,38.1,22.1,26.46,North,0,0.0,0.0,52,0.00,,,0.16,VWS V14.01,2013-01-26 22:16:00,
2013-01-26 14:21:00,38.1,23.0,26.46,North,0,0.0,0.0,54,0.00,,,0.16,VWS V14.01,2013-01-26 22:21:00,
2013-01-26 14:26:00,37.9,22.4,26.46,North,0,0.0,0.0,53,0.00,,,0.16,VWS V14.01,2013-01-26 22:26:00,
2013-01-26 14:31:00,37.8,22.2,26.46,North,0,0.0,0.0,53,0.00,,,0.16,VWS V14.01,2013-01-26 22:31:00,
2013-01-26 14:36:00,37.8,21.7,26.46,North,0,0.0,0.0,52,0.00,,,0.16,VWS V14.01,2013-01-26 22:36:00,
2013-01-26 14:41:00,37.6,21.6,26.46,North,0,0.0,0.0,52,0.00,,,0.16,VWS V14.01,2013-01-26 22:41:00,
2013-01-26 14:46:00,37.4,21.4,26.46,North,0,0.0,0.0,52,0.00,,,0.16,VWS V14.01,2013-01-26 22:46:00,
2013-01-26 14:51:00,37.4,20.9,26.46,North,0,0.0,0.0,51,0.00,,,0.16,VWS V14.01,2013-01-26 22:51:00,
2013-01-26 14:56:00,37.2,21.7,26.46,North,0,0.0,0.0,53,0.00,,,0.16,VWS V14.01,2013-01-26 22:56:00,
2013-01-26 15:01:00,37.0,21.5,26.46,North,0,0.0,0.0,53,0.00,,,0.16,VWS V14.01,2013-01-26 23:01:00,
2013-01-26 15:06:00,37.2,21.7,26.46,North,0,0.0,0.0,53,0.00,,,0.16,VWS V14.01,2013-01-26 23:06:00,
2013-01-26 15:11:00,37.4,20.9,26.46,North,0,0.0,0.0,51,0.00,,,0.16,VWS V14.01,2013-01-26 23:11:00,
2013-01-26 15:16:00,37.4,21.4,26.46,North,0,0.0,0.0,52,0.00,,,0.16,VWS V14.01,2013-01-26 23:16:00,
2013-01-26 15:21:00,37.2,21.2,26.46,North,0,0.0,0.0,52,0.00,,,0.16,VWS V14.01,2013-01-26 23:21:00,
2013-01-26 15:26:00,37.2,21.7,26.46,North,0,0.0,0.0,53,0.00,,,0.16,VWS V14.01,2013-01-26 23:26:00,
2013-01-26 15:31:00,36.7,21.6,26.46,North,0,0.0,0.0,54,0.00,,,0.16,VWS V14.01,2013-01-26 23:31:00,
2013-01-26 15:36:00,36.7,21.6,26.46,North,0,0.0,0.0,54,0.00,,,0.16,VWS V14.01,2013-01-26 23:36:00,
2013-01-26 15:41:00,36.7,21.6,26.46,North,0,0.0,0.0,54,0.00,,,0.16,VWS V14.01,2013-01-26 23:41:00,
2013-01-26 15:46:00,36.7,22.0,26.46,North,0,0.0,0.0,55,0.00,,,0.16,VWS V14.01,2013-01-26 23:46:00,
2013-01-26 15:51:00,37.2,22.1,26.46,North,0,0.0,0.0,54,0.00,,,0.16,VWS V14.01,2013-01-26 23:51:00,
2013-01-26 15:56:00,37.4,21.9,26.46,North,0,0.0,0.0,53,0.00,,,0.16,VWS V14.01,2013-01-26 23:56:00,
2013-01-26 16:01:00,37.4,21.9,26.46,North,0,0.0,0.0,53,0.00,,,0.16,VWS V14.01,2013-01-27 00:01:00,
2013-01-26 16:06:00,36.9,21.8,26.46,North,0,0.0,0.0,54,0.00,,,0.16,VWS V14.01,2013-01-27 00:06:00,
2013-01-26 16:11:00,36.3,21.3,26.46,North,0,0.0,0.0,54,0.00,,,0.16,VWS V14.01,2013-01-27 00:11:00,
2013-01-26 16:16:00,36.3,21.3,26.46,North,0,0.0,0.0,54,0.00,,,0.16,VWS V14.01,2013-01-27 00:16:00,
2013-01-26 16:21:00,35.4,20.9,26.46,North,0,0.0,0.0,55,0.00,,,0.16,VWS V14.01,2013-01-27 00:21:00,
2013-01-26 16:26:00,34.9,20.8,26.46,North,0,0.0,0.0,56,0.00,,,0.16,VWS V14.01,2013-01-27 00:26:00,
2013-01-26 16:31:00,34.5,20.5,26.46,North,0,0.0,0.0,56,0.00,,,0.16,VWS V14.01,2013-01-27 00:31:00,
2013-01-26 16:36:00,34.0,20.8,26.46,North,0,0.0,0.0,58,0.00,,,0.16,VWS V14.01,2013-01-27 00:36:00,
2013-01-26 16:41:00,33.4,20.7,26.46,North,0,0.0,0.0,59,0.00,,,0.16,VWS V14.01,2013-01-27 00:41:00,
2013-01-26 16:46:00,33.4,21.1,26.46,North,0,0.0,0.0,60,0.00,,,0.16,VWS V14.01,2013-01-27 00:46:00,
2013-01-26 16:51:00,33.8,21.0,26.49,North,0,0.0,0.0,59,0.00,,,0.16,VWS V14.01,2013-01-27 00:51:00,
2013-01-26 16:56:00,33.8,20.6,26.49,North,0,0.0,0.0,58,0.00,,,0.16,VWS V14.01,2013-01-27 00:56:00,
2013-01-26 17:01:00,33.1,20.3,26.49,North,0,0.0,0.0,59,0.00,,,0.16,VWS V14.01,2013-01-27 01:01:00,
2013-01-26 17:06:00,32.2,20.3,26.49,North,0,0.0,0.0,61,0.00,,,0.16,VWS V14.01,2013-01-27 01:06:00,
2013-01-26 17:11:00,32.2,20.3,26.49,North,0,0.0,0.0,61,0.00,,,0.16,VWS V14.01,2013-01-27 01:11:00,
2013-01-26 17:16:00,32.7,21.1,26.49,North,0,0.0,0.0,62,0.00,,,0.16,VWS V14.01,2013-01-27 01:16:00,
2013-01-26 17:21:00,33.1,21.1,26.49,North,0,0.0,0.0,61,0.00,,,0.16,VWS V14.01,2013-01-27 01:21:00,
2013-01-26 17:26:00,33.3,20.9,26.49,North,0,0.0,0.0,60,0.00,,,0.16,VWS V14.01,2013-01-27 01:26:00,
2013-01-26 17:31:00,33.3,20.5,26.49,North,0,0.0,0.0,59,0.00,,,0.16,VWS V14.01,2013-01-27 01:31:00,
2013-01-26 17:36:00,33.3,20.5,26.49,North,0,0.0,0.0,59,0.00,,,0.16,VWS V14.01,2013-01-27 01:36:00,
2013-01-26 17:41:00,33.1,20.3,26.49,North,0,0.0,0.0,59,0.00,,,0.16,VWS V14.01,2013-01-27 01:41:00,
2013-01-26 17:46:00,33.1,20.3,26.49,North,0,0.0,0.0,59,0.00,,,0.16,VWS V14.01,2013-01-27 01:46:00,
2013-01-26 17:51:00,33.1,20.3,26.49,North,0,0.0,0.0,59,0.00,,,0.16,VWS V14.01,2013-01-27 01:51:00,
2013-01-26 17:56:00,31.6,20.5,26.49,North,0,0.0,0.0,63,0.00,,,0.16,VWS V14.01,2013-01-27 01:56:00,
2013-01-26 18:01:00,31.5,20.7,26.49,North,0,0.0,0.0,64,0.00,,,0.16,VWS V14.01,2013-01-27 02:01:00,
2013-01-26 18:06:00,31.6,20.9,26.49,North,0,0.0,0.0,64,0.00,,,0.16,VWS V14.01,2013-01-27 02:06:00,
2013-01-26 18:11:00,32.5,21.4,26.49,North,0,0.0,0.0,63,0.00,,,0.16,VWS V14.01,2013-01-27 02:11:00,
2013-01-26 18:16:00,32.9,21.3,26.49,North,0,0.0,0.0,62,0.00,,,0.16,VWS V14.01,2013-01-27 02:16:00,
2013-01-26 18:21:00,32.5,21.4,26.49,North,0,0.0,0.0,63,0.00,,,0.16,VWS V14.01,2013-01-27 02:21:00,
2013-01-26 18:26:00,32.2,21.8,26.49,North,0,0.0,0.0,65,0.00,,,0.16,VWS V14.01,2013-01-27 02:26:00,
2013-01-26 18:31:00,31.8,21.8,26.49,North,0,0.0,0.0,66,0.00,,,0.16,VWS V14.01,2013-01-27 02:31:00,
2013-01-26 18:36:00,31.1,22.1,26.49,North,0,0.0,0.0,69,0.00,,,0.16,VWS V14.01,2013-01-27 02:36:00,
2013-01-26 18:41:00,31.1,22.8,26.49,North,0,0.0,0.0,71,0.00,,,0.16,VWS V14.01,2013-01-27 02:41:00,
2013-01-26 18:46:00,31.1,23.1,26.49,North,0,0.0,0.0,72,0.00,,,0.16,VWS V14.01,2013-01-27 02:46:00,
2013-01-26 18:51:00,31.1,22.8,26.49,North,0,0.0,0.0,71,0.00,,,0.16,VWS V14.01,2013-01-27 02:51:00,
2013-01-26 18:56:00,31.3,22.6,26.49,North,0,0.0,0.0,70,0.00,,,0.16,VWS V14.01,2013-01-27 02:56:00,
2013-01-26 19:01:00,31.3,22.6,26.49,North,0,0.0,0.0,70,0.00,,,0.16,VWS V14.01,2013-01-27 03:01:00,
2013-01-26 19:06:00,31.3,21.3,26.49,North,0,0.0,0.0,66,0.00,,,0.16,VWS V14.01,2013-01-27 03:06:00,
2013-01-26 19:11:00,30.7,20.7,26.49,North,0,0.0,0.0,66,0.00,,,0.16,VWS V14.01,2013-01-27 03:11:00,
2013-01-26 19:16:00,30.7,20.7,26.49,North,0,0.0,0.0,66,0.00,,,0.16,VWS V14.01,2013-01-27 03:16:00,
2013-01-26 19:21:00,31.1,20.0,26.49,North,0,0.0,0.0,63,0.00,,,0.16,VWS V14.01,2013-01-27 03:21:00,
2013-01-26 19:26:00,31.5,20.0,26.49,North,0,0.0,0.0,62,0.00,,,0.16,VWS V14.01,2013-01-27 03:26:00,
2013-01-26 19:31:00,31.3,19.4,26.49,North,0,0.0,0.0,61,0.00,,,0.16,VWS V14.01,2013-01-27 03:31:00,
2013-01-26 19:36:00,31.1,19.2,26.49,North,0,0.0,0.0,61,0.00,,,0.16,VWS V14.01,2013-01-27 03:36:00,
2013-01-26 19:41:00,31.1,19.2,26.49,North,0,0.0,0.0,61,0.00,,,0.16,VWS V14.01,2013-01-27 03:41:00,
2013-01-26 19:46:00,31.1,19.2,26.49,North,0,0.0,0.0,61,0.00,,,0.16,VWS V14.01,2013-01-27 03:46:00,
2013-01-26 19:51:00,30.6,19.5,26.49,North,0,0.0,0.0,63,0.00,,,0.16,VWS V14.01,2013-01-27 03:51:00,
2013-01-26 19:56:00,31.1,19.6,26.49,North,0,0.0,0.0,62,0.00,,,0.16,VWS V14.01,2013-01-27 03:56:00,
2013-01-26 20:01:00,30.7,19.6,26.49,North,0,0.0,0.0,63,0.00,,,0.16,VWS V14.01,2013-01-27 04:01:00,
2013-01-26 20:06:00,30.6,19.9,26.49,North,0,0.0,0.0,64,0.00,,,0.16,VWS V14.01,2013-01-27 04:06:00,
2013-01-26 20:11:00,30.6,19.9,26.49,North,0,0.0,0.0,64,0.00,,,0.16,VWS V14.01,2013-01-27 04:11:00,
2013-01-26 20:16:00,30.6,19.9,26.49,North,0,0.0,0.0,64,0.00,,,0.16,VWS V14.01,2013-01-27 04:16:00,
2013-01-26 20:21:00,29.8,21.3,26.49,North,0,0.0,0.0,70,0.00,,,0.16,VWS V14.01,2013-01-27 04:21:00,
2013-01-26 20:26:00,30.0,21.4,26.49,North,0,0.0,0.0,70,0.00,,,0.16,VWS V14.01,2013-01-27 04:26:00,
2013-01-26 20:31:00,30.7,21.8,26.49,North,0,0.0,0.0,69,0.00,,,0.16,VWS V14.01,2013-01-27 04:31:00,
2013-01-26 20:36:00,30.7,21.8,26.49,North,0,0.0,0.0,69,0.00,,,0.16,VWS V14.01,2013-01-27 04:36:00,
2013-01-26 20:41:00,30.6,21.6,26.49,North,0,0.0,0.0,69,0.00,,,0.16,VWS V14.01,2013-01-27 04:41:00,
2013-01-26 20:46:00,30.4,21.8,26.49,North,0,0.0,0.0,70,0.00,,,0.16,VWS V14.01,2013-01-27 04:46:00,
2013-01-26 20:51:00,30.6,22.0,26.49,North,0,0.0,0.0,70,0.00,,,0.16,VWS V14.01,2013-01-27 04:51:00,
2013-01-26 20:56:00,30.6,22.0,26.49,North,0,0.0,0.0,70,0.00,,,0.16,VWS V14.01,2013-01-27 04:56:00,
2013-01-26 21:00:00,30.7,21.8,26.49,North,0,0.0,0.0,69,0.00,,,0.16,VWS V14.01,2013-01-27 05:00:00,
2013-01-26 21:03:00,30.7,21.8,26.49,North,0,0.0,0.0,69,0.00,,,0.16,VWS V14.01,2013-01-27 05:03:00,
2013-01-26 21:08:00,30.7,21.8,26.49,North,0,0.0,0.0,69,0.00,,,0.16,VWS V14.01,2013-01-27 05:08:00,
2013-01-26 21:13:00,30.7,21.8,26.49,North,0,0.0,0.0,69,0.00,,,0.16,VWS V14.01,2013-01-27 05:13:00,
2013-01-26 21:18:00,30.7,21.8,26.49,North,0,0.0,0.0,69,0.00,,,0.16,VWS V14.01,2013-01-27 05:18:00,
2013-01-26 21:23:00,30.2,21.9,26.49,North,0,0.0,0.0,71,0.00,,,0.16,VWS V14.01,2013-01-27 05:23:00,
2013-01-26 21:28:00,29.7,22.1,26.49,North,0,0.0,0.0,73,0.00,,,0.16,VWS V14.01,2013-01-27 05:28:00,
2013-01-26 21:33:00,28.6,21.4,26.49,North,0,0.0,0.0,74,0.00,,,0.16,VWS V14.01,2013-01-27 05:33:00,
2013-01-26 21:38:00,28.6,21.4,26.49,North,0,0.0,0.0,74,0.00,,,0.16,VWS V14.01,2013-01-27 05:38:00,
2013-01-26 21:43:00,28.6,21.4,26.49,North,0,0.0,0.0,74,0.00,,,0.16,VWS V14.01,2013-01-27 05:43:00,
2013-01-26 21:48:00,28.8,21.9,26.49,North,0,0.0,0.0,75,0.00,,,0.16,VWS V14.01,2013-01-27 05:48:00,
2013-01-26 21:53:00,28.6,21.4,26.49,North,0,0.0,0.0,74,0.00,,,0.16,VWS V14.01,2013-01-27 05:53:00,
2013-01-26 21:58:00,27.9,20.7,26.52,North,0,0.0,0.0,74,0.00,,,0.16,VWS V14.01,2013-01-27 05:58:00,
2013-01-26 22:03:00,27.9,21.6,26.52,North,0,0.0,0.0,77,0.00,,,0.16,VWS V14.01,2013-01-27 06:03:00,
2013-01-26 22:08:00,27.9,21.6,26.52,North,0,0.0,0.0,77,0.00,,,0.16,VWS V14.01,2013-01-27 06:08:00,
2013-01-26 22:13:00,27.9,21.6,26.52,North,0,0.0,0.0,77,0.00,,,0.16,VWS V14.01,2013-01-27 06:13:00,
2013-01-26 22:18:00,27.9,21.3,26.52,North,0,0.0,0.0,76,0.00,,,0.16,VWS V14.01,2013-01-27 06:18:00,
2013-01-26 22:23:00,27.7,21.1,26.52,North,0,0.0,0.0,76,0.00,,,0.16,VWS V14.01,2013-01-27 06:23:00,
2013-01-26 22:28:00,27.5,20.6,26.52,North,0,0.0,0.0,75,0.00,,,0.16,VWS V14.01,2013-01-27 06:28:00,
2013-01-26 22:33:00,27.5,20.9,26.52,North,0,0.0,0.0,76,0.00,,,0.16,VWS V14.01,2013-01-27 06:33:00,
2013-01-26 22:38:00,27.5,20.9,26.52,North,0,0.0,0.0,76,0.00,,,0.16,VWS V14.01,2013-01-27 06:38:00,
2013-01-26 22:43:00,27.9,21.3,26.52,North,0,0.0,0.0,76,0.00,,,0.16,VWS V14.01,2013-01-27 06:43:00,
2013-01-26 22:48:00,28.2,21.3,26.52,North,0,0.0,0.0,75,0.00,,,0.16,VWS V14.01,2013-01-27 06:48:00,
2013-01-26 22:53:00,28.2,21.3,26.52,North,0,0.0,0.0,75,0.00,,,0.16,VWS V14.01,2013-01-27 06:53:00,
2013-01-26 22:58:00,28.2,21.3,26.52,North,0,0.0,0.0,75,0.00,,,0.16,VWS V14.01,2013-01-27 06:58:00,
2013-01-26 23:00:00,27.5,20.0,26.52,North,0,0.0,0.0,73,0.00,,,0.00,VWS V14.01,2013-01-27 07:00:00,
2013-01-26 23:01:00,27.5,20.0,26.52,North,0,0.0,0.0,73,0.00,,,0.00,VWS V14.01,2013-01-27 07:01:00,
2013-01-26 23:02:00,27.5,20.0,26.52,North,0,0.0,0.0,73,0.00,,,0.00,VWS V14.01,2013-01-27 07:02:00,
2013-01-26 23:03:00,27.1,19.3,26.52,North,0,0.0,0.0,72,0.00,,,0.00,VWS V14.01,2013-01-27 07:03:00,
2013-01-26 23:04:00,27.0,19.1,26.52,North,0,0.0,0.0,72,0.00,,,0.00,VWS V14.01,2013-01-27 07:04:00,
2013-01-26 23:05:00,26.8,19.0,26.52,North,0,0.0,0.0,72,0.00,,,0.00,VWS V14.01,2013-01-27 07:05:00,
2013-01-26 23:06:00,26.8,19.0,26.52,North,0,0.0,0.0,72,0.00,,,0.00,VWS V14.01,2013-01-27 07:06:00,
2013-01-26 23:07:00,26.4,18.6,26.52,North,0,0.0,0.0,72,0.00,,,0.00,VWS V14.01,2013-01-27 07:07:00,
2013-01-26 23:08:00,26.2,18.8,26.52,North,0,0.0,0.0,73,0.00,,,0.00,VWS V14.01,2013-01-27 07:08:00,
2013-01-26 23:09:00,26.2,18.8,26.52,North,0,0.0,0.0,73,0.00,,,0.00,VWS V14.01,2013-01-27 07:09:00,
2013-01-26 23:10:00,26.2,18.8,26.52,North,0,0.0,0.0,73,0.00,,,0.00,VWS V14.01,2013-01-27 07:10:00,
2013-01-26 23:11:00,26.2,18.8,26.52,North,0,0.0,0.0,73,0.00,,,0.00,VWS V14.01,2013-01-27 07:11:00,
2013-01-26 23:12:00,26.2,18.8,26.52,North,0,0.0,0.0,73,0.00,,,0.00,VWS V14.01,2013-01-27 07:12:00,
2013-01-26 23:13:00,26.2,18.8,26.52,North,0,0.0,0.0,73,0.00,,,0.00,VWS V14.01,2013-01-27 07:13:00,
2013-01-26 23:14:00,26.2,18.8,26.52,North,0,0.0,0.0,73,0.00,,,0.00,VWS V14.01,2013-01-27 07:14:00,
2013-01-26 23:15:00,25.9,19.7,26.52,North,0,0.0,0.0,77,0.00,,,0.00,VWS V14.01,2013-01-27 07:15:00,
2013-01-26 23:16:00,25.9,19.7,26.52,North,0,0.0,0.0,77,0.00,,,0.00,VWS V14.01,2013-01-27 07:16:00,
2013-01-26 23:17:00,25.9,19.7,26.52,North,0,0.0,0.0,77,0.00,,,0.00,VWS V14.01,2013-01-27 07:17:00,
2013-01-26 23:18:00,25.7,19.2,26.52,North,0,0.0,0.0,76,0.00,,,0.00,VWS V14.01,2013-01-27 07:18:00,
2013-01-26 23:19:00,25.7,19.2,26.52,North,0,0.0,0.0,76,0.00,,,0.00,VWS V14.01,2013-01-27 07:19:00,
2013-01-26 23:20:00,25.7,19.2,26.52,North,0,0.0,0.0,76,0.00,,,0.00,VWS V14.01,2013-01-27 07:20:00,
2013-01-26 23:21:00,25.5,19.0,26.52,North,0,0.0,0.0,76,0.00,,,0.00,VWS V14.01,2013-01-27 07:21:00,
2013-01-26 23:22:00,25.5,19.0,26.52,North,0,0.0,0.0,76,0.00,,,0.00,VWS V14.01,2013-01-27 07:22:00,
2013-01-26 23:23:00,25.5,19.0,26.52,North,0,0.0,0.0,76,0.00,,,0.00,VWS V14.01,2013-01-27 07:23:00,
2013-01-26 23:24:00,25.3,19.1,26.52,North,0,0.0,0.0,77,0.00,,,0.00,VWS V14.01,2013-01-27 07:24:00,
2013-01-26 23:25:00,25.3,19.1,26.52,North,0,0.0,0.0,77,0.00,,,0.00,VWS V14.01,2013-01-27 07:25:00,
2013-01-26 23:26:00,25.3,19.1,26.52,North,0,0.0,0.0,77,0.00,,,0.00,VWS V14.01,2013-01-27 07:26:00,
2013-01-26 23:27:00,25.3,19.1,26.52,North,0,0.0,0.0,77,0.00,,,0.00,VWS V14.01,2013-01-27 07:27:00,
2013-01-26 23:28:00,25.3,19.1,26.52,North,0,0.0,0.0,77,0.00,,,0.00,VWS V14.01,2013-01-27 07:28:00,
2013-01-26 23:29:00,25.2,19.0,26.52,North,0,0.0,0.0,77,0.00,,,0.00,VWS V14.01,2013-01-27 07:29:00,
2013-01-26 23:30:00,25.2,19.0,26.52,North,0,0.0,0.0,77,0.00,,,0.00,VWS V14.01,2013-01-27 07:30:00,
2013-01-26 23:31:00,25.2,19.0,26.52,North,0,0.0,0.0,77,0.00,,,0.00,VWS V14.01,2013-01-27 07:31:00,
2013-01-26 23:32:00,24.8,18.6,26.52,North,0,0.0,0.0,77,0.00,,,0.00,VWS V14.01,2013-01-27 07:32:00,
2013-01-26 23:33:00,24.8,18.6,26.52,North,0,0.0,0.0,77,0.00,,,0.00,VWS V14.01,2013-01-27 07:33:00,
2013-01-26 23:34:00,24.8,18.6,26.52,North,0,0.0,0.0,77,0.00,,,0.00,VWS V14.01,2013-01-27 07:34:00,
2013-01-26 23:35:00,24.8,18.6,26.52,North,0,0.0,0.0,77,0.00,,,0.00,VWS V14.01,2013-01-27 07:35:00,
2013-01-26 23:36:00,24.8,18.6,26.52,North,0,0.0,0.0,77,0.00,,,0.00,VWS V14.01,2013-01-27 07:36:00,
2013-01-26 23:37:00,24.4,18.0,26.52,North,0,0.0,0.0,76,0.00,,,0.00,VWS V14.01,2013-01-27 07:37:00,
2013-01-26 23:38:00,24.4,18.0,26.52,North,0,0.0,0.0,76,0.00,,,0.00,VWS V14.01,2013-01-27 07:38:00,
2013-01-26 23:39:00,24.4,18.0,26.52,North,0,0.0,0.0,76,0.00,,,0.00,VWS V14.01,2013-01-27 07:39:00,
2013-01-26 23:40:00,24.4,18.6,26.52,North,0,0.0,0.0,78,0.00,,,0.00,VWS V14.01,2013-01-27 07:40:00,
2013-01-26 23:41:00,24.4,18.6,26.52,North,0,0.0,0.0,78,0.00,,,0.00,VWS V14.01,2013-01-27 07:41:00,
2013-01-26 23:42:00,24.4,18.6,26.52,North,0,0.0,0.0,78,0.00,,,0.00,VWS V14.01,2013-01-27 07:42:00,
2013-01-26 23:43:00,24.4,18.6,26.52,North,0,0.0,0.0,78,0.00,,,0.00,VWS V14.01,2013-01-27 07:43:00,
2013-01-26 23:44:00,24.4,18.6,26.52,North,0,0.0,0.0,78,0.00,,,0.00,VWS V14.01,2013-01-27 07:44:00,
2013-01-26 23:45:00,24.4,18.6,26.52,North,0,0.0,0.0,78,0.00,,,0.00,VWS V14.01,2013-01-27 07:45:00,
2013-01-26 23:46:00,24.4,18.6,26.52,North,0,0.0,0.0,78,0.00,,,0.00,VWS V14.01,2013-01-27 07:46:00,
2013-01-26 23:47:00,25.2,20.5,26.52,North,0,0.0,0.0,82,0.00,,,0.00,VWS V14.01,2013-01-27 07:47:00,
2013-01-26 23:48:00,25.2,20.5,26.52,North,0,0.0,0.0,82,0.00,,,0.00,VWS V14.01,2013-01-27 07:48:00,
2013-01-26 23:49:00,25.2,20.5,26.52,North,0,0.0,0.0,82,0.00,,,0.00,VWS V14.01,2013-01-27 07:49:00,
2013-01-26 23:50:00,25.2,20.5,26.52,North,0,0.0,0.0,82,0.00,,,0.00,VWS V14.01,2013-01-27 07:50:00,
2013-01-26 23:51:00,25.2,20.5,26.52,North,0,0.0,0.0,82,0.00,,,0.00,VWS V14.01,2013-01-27 07:51:00,
2013-01-26 23:52:00,25.2,20.5,26.52,North,0,0.0,0.0,82,0.00,,,0.00,VWS V14.01,2013-01-27 07:52:00,
2013-01-26 23:53:00,25.3,20.3,26.52,North,0,0.0,0.0,81,0.00,,,0.00,VWS V14.01,2013-01-27 07:53:00,
2013-01-26 23:54:00,25.3,20.3,26.52,North,0,0.0,0.0,81,0.00,,,0.00,VWS V14.01,2013-01-27 07:54:00,
2013-01-26 23:55:00,25.3,20.3,26.52,North,0,0.0,0.0,81,0.00,,,0.00,VWS V14.01,2013-01-27 07:55:00,
2013-01-26 23:56:00,25.3,20.3,26.52,North,0,0.0,0.0,81,0.00,,,0.00,VWS V14.01,2013-01-27 07:56:00,
2013-01-26 23:57:00,25.3,20.3,26.52,North,0,0.0,0.0,81,0.00,,,0.00,VWS V14.01,2013-01-27 07:57:00,
2013-01-26 23:58:00,25.3,20.0,26.52,North,0,0.0,0.0,80,0.00,,,0.00,VWS V14.01,2013-01-27 07:58:00,
2013-01-26 23:59:00,25.3,20.0,26.52,North,0,0.0,0.0,80,0.00,,,0.00,VWS V14.01,2013-01-27 07:59:00,